カタログに戻る

OPS 4682 DEB

運用中PO
NORAD 38369·DEBRIS·🇺🇸 United States

打ち上げ Apr 3, 1965 から Vandenberg Space Force Base

Loading…

次のパス (今後24時間)

TLE

最新Source: Space-Track

元期: Sep 14, 2026, 13:16 UTC

1 38369U 65027BW  26257.55280299  .00000062  00000-0  18529-3 0  9997
2 38369  90.2450   8.3059 0031360 164.9003 195.3062 12.98492199564625

AllMySatでOPS 4682 DEBをリアルタイム追跡

Download on the App Store